TimeEST,TemperatureF,Dew PointF,Humidity,Sea Level PressureIn,VisibilityMPH,Wind Direction,Wind SpeedMPH,Gust SpeedMPH,PrecipitationIn,Events,Conditions,WindDirDegrees,DateUTC
12:00 AM,10.4,3.2,73,30.13,4.0,WSW,17.3,-,0.00,Snow,Light Snow,250,2013-01-22 05:00:00
12:07 AM,10.4,3.2,73,30.13,6.0,WSW,16.1,-,0.00,,Haze,240,2013-01-22 05:07:00
12:50 AM,8.6,3.2,79,30.13,5.0,WSW,16.1,-,0.00,Snow,Light Snow,240,2013-01-22 05:50:00
12:53 AM,9.0,3.0,77,30.16,4.0,WSW,13.8,23.0,0.00,Snow,Light Snow,250,2013-01-22 05:53:00
1:03 AM,8.6,3.2,79,30.12,1.8,WSW,13.8,21.9,0.00,Snow,Light Snow,250,2013-01-22 06:03:00
1:33 AM,10.4,3.2,73,30.12,2.5,WSW,17.3,25.3,0.00,Snow,Light Snow,250,2013-01-22 06:33:00
1:47 AM,10.4,3.2,73,30.14,1.0,WNW,18.4,-,0.00,Snow,Light Snow,290,2013-01-22 06:47:00
1:53 AM,9.0,3.9,80,30.17,0.5,WNW,16.1,-,0.00,Snow,Snow,300,2013-01-22 06:53:00
2:02 AM,8.6,3.2,79,30.14,0.8,WNW,15.0,-,0.00,Snow,Light Snow,300,2013-01-22 07:02:00
2:08 AM,8.6,3.2,79,30.14,1.2,WNW,12.7,-,0.00,Snow,Light Snow,290,2013-01-22 07:08:00
2:12 AM,8.6,3.2,79,30.15,2.0,WNW,10.4,-,0.00,Snow,Light Snow,300,2013-01-22 07:12:00
2:21 AM,8.6,3.2,79,30.15,3.0,WNW,11.5,-,0.00,Snow,Light Snow,300,2013-01-22 07:21:00
2:35 AM,8.6,3.2,79,30.16,6.0,NW,9.2,-,0.00,,Haze,310,2013-01-22 07:35:00
2:53 AM,8.1,-0.0,70,30.20,10.0,WNW,15.0,-,0.00,,Overcast,300,2013-01-22 07:53:00
3:53 AM,6.1,-0.9,73,30.22,10.0,NNW,4.6,-,0.00,,Overcast,330,2013-01-22 08:53:00
4:53 AM,3.9,-2.0,76,30.23,5.0,WNW,6.9,-,0.00,Snow,Light Snow,300,2013-01-22 09:53:00
5:05 AM,5.0,-2.2,72,30.20,8.0,NW,9.2,-,0.00,,Overcast,310,2013-01-22 10:05:00
5:53 AM,3.9,-2.9,73,30.26,5.0,NW,11.5,-,0.00,,Haze,310,2013-01-22 10:53:00
6:53 AM,3.0,-4.0,73,30.28,10.0,NNW,9.2,-,N/A,,Overcast,330,2013-01-22 11:53:00
7:51 AM,1.4,-7.6,66,30.26,10.0,WNW,9.2,-,N/A,,Partly Cloudy,300,2013-01-22 12:51:00
7:53 AM,1.9,-7.1,66,30.31,10.0,WNW,9.2,-,N/A,,Partly Cloudy,300,2013-01-22 12:53:00
8:53 AM,3.0,-6.0,66,30.33,8.0,WNW,9.2,-,N/A,,Overcast,300,2013-01-22 13:53:00
9:42 AM,3.2,-4.0,72,30.30,1.8,NW,9.2,-,0.00,Snow,Light Snow,310,2013-01-22 14:42:00
9:53 AM,5.0,-2.9,70,30.35,1.8,NW,9.2,-,0.00,Snow,Light Snow,310,2013-01-22 14:53:00
10:04 AM,5.0,-2.2,72,30.31,2.0,WNW,9.2,-,0.00,Snow,Light Snow,300,2013-01-22 15:04:00
10:16 AM,5.0,-2.2,72,30.31,4.0,NW,8.1,-,0.00,,Haze,320,2013-01-22 15:16:00
10:53 AM,6.1,-2.0,69,30.36,8.0,WNW,5.8,-,0.00,,Overcast,290,2013-01-22 15:53:00
11:53 AM,8.1,-0.0,70,30.35,10.0,West,9.2,-,N/A,,Overcast,270,2013-01-22 16:53:00
12:53 PM,10.0,-0.0,64,30.32,5.0,West,11.5,-,0.00,Snow,Light Snow,270,2013-01-22 17:53:00
1:04 PM,10.4,-0.4,62,30.28,5.0,WSW,12.7,20.7,0.00,Snow,Light Snow,250,2013-01-22 18:04:00
1:53 PM,10.9,-0.9,59,30.30,6.0,West,10.4,-,0.00,Snow,Light Snow,280,2013-01-22 18:53:00
2:01 PM,10.4,-0.4,62,30.26,7.0,West,12.7,19.6,0.00,Snow,Light Snow,260,2013-01-22 19:01:00
2:53 PM,10.9,-0.9,59,30.31,9.0,West,13.8,-,0.00,,Overcast,270,2013-01-22 19:53:00
3:37 PM,10.4,-0.4,62,30.27,9.0,West,13.8,-,0.00,,Mostly Cloudy,260,2013-01-22 20:37:00
3:53 PM,10.9,-0.0,61,30.31,10.0,West,13.8,21.9,0.00,,Overcast,270,2013-01-22 20:53:00
4:53 PM,10.9,-2.9,54,30.31,10.0,WSW,11.5,-,N/A,,Clear,240,2013-01-22 21:53:00
5:53 PM,10.0,-2.9,56,30.32,10.0,West,11.5,-,N/A,,Clear,260,2013-01-22 22:53:00
6:53 PM,9.0,-4.0,56,30.34,10.0,West,12.7,-,N/A,,Clear,280,2013-01-22 23:53:00
7:53 PM,9.0,-4.0,56,30.34,10.0,West,11.5,-,N/A,,Clear,260,2013-01-23 00:53:00
8:53 PM,7.0,-4.0,61,30.34,10.0,West,6.9,-,N/A,,Clear,270,2013-01-23 01:53:00
9:53 PM,5.0,-4.0,66,30.33,10.0,SW,4.6,-,N/A,,Clear,230,2013-01-23 02:53:00
10:53 PM,3.9,-5.1,66,30.33,10.0,WSW,4.6,-,N/A,,Clear,240,2013-01-23 03:53:00
11:53 PM,3.9,-5.1,66,30.34,10.0,WSW,4.6,-,N/A,,Clear,250,2013-01-23 04:53:00